Notices

What's New in latest Release from April 7th, 2021:

- Updated Glossary, including Speed of Maximum Gust, and Total Hourly Precipitation

- Updated national and regional climate services offices contacts and prices information

- Addition of station inventory lists for 1981-2010, 1971-2000, and 1961-1990 Normals.

If you haven't already, please take our survey and provide feedback about our website: https://eccc.sondage-survey.ca/f/LanguageSelection.aspx?s=442ca660-fcf1-47c0-95a9-59707d6fd709

Hourly Data Report for August 26, 2018

TORONTO CITY
ONTARIO
Current Station Operator: ECCC - MSC

43°40'00.000" N
79°24'00.000" W
112.50 m
6158355
71508
XTO

Download Data

Hourly Data (August 2018)
Hourly Data Report for August 26, 2018
TIME
LST
Temp Definition
°C
Dew Point Definition
°C
Rel Hum Definition
%
Precip. Amount Definition
mm

Wind Dir Definition
10's deg

Wind Spd Definition
km/h
Visibility Definition
km
Stn Press Definition
kPa
Hmdx Definition


Wind Chill Definition


Weather Definition


00:00 20.5 18.4 88 5.7 LegendMM LegendMM   100.28 27   LegendNANA
01:00 20.7 18.5 88 0.0 LegendMM LegendMM   100.23 27   LegendNANA
02:00 20.9 18.8 88 0.0 LegendMM LegendMM   100.20 28   LegendNANA
03:00 21.3 18.6 85 0.0 LegendMM LegendMM   100.17 28   LegendNANA
04:00 20.8 18.6 87 0.0 LegendMM LegendMM   100.19 27   LegendNANA
05:00 20.5 18.8 90 0.0 LegendMM LegendMM   100.19 27   LegendNANA
06:00 20.8 19.1 90 0.0 LegendMM LegendMM   100.23 28   LegendNANA
07:00 21.2 19.5 90 0.0 LegendMM LegendMM   100.27 28   LegendNANA
08:00 23.2 20.0 82 0.0 LegendMM LegendMM   100.27 31   LegendNANA
09:00 24.2 19.4 75 0.0 LegendMM LegendMM   100.31 31   LegendNANA
10:00 25.9 19.4 67 0.0 LegendMM LegendMM   100.30 33   LegendNANA
11:00 25.2 19.0 68 0.0 LegendMM LegendMM   100.27 32   LegendNANA
12:00 26.3 19.0 64 0.0 LegendMM LegendMM   100.27 33   LegendNANA
13:00 27.0 18.8 61 0.0 LegendMM LegendMM   100.26 34   LegendNANA
14:00 28.6 18.5 54 0.0 LegendMM LegendMM   100.25 35   LegendNANA
15:00 28.4 17.6 52 0.0 LegendMM LegendMM   100.20 34   LegendNANA
16:00 28.6 16.3 47 0.0 LegendMM LegendMM   100.21 33   LegendNANA
17:00 28.3 16.2 48 0.0 LegendMM LegendMM   100.23 33   LegendNANA
18:00 27.6 16.1 50 0.0 LegendMM LegendMM   100.23 32   LegendNANA
19:00 26.0 16.2 55 0.0 LegendMM LegendMM   100.25 31   LegendNANA
20:00 24.1 16.6 63 0.0 LegendMM LegendMM   100.28 29   LegendNANA
21:00 23.2 16.9 68 0.0 LegendMM LegendMM   100.33 28   LegendNANA
22:00 24.1 17.7 68 0.0 LegendMM LegendMM   100.38 30   LegendNANA
23:00 22.5 17.7 75 0.0 LegendMM LegendMM   100.39 28   LegendNANA

Notes on Data Quality.

Legend

  • E = Estimated
  • M = Missing
  • NA = Not Available*
  • [empty] = Indicates an unobserved value
Date modified: